This is the latest recevied weather packets stored in our database for station/object N7UV-WX. If no packets are shown the sender has not sent any weather packets the latest 10 day(s).
| Time | Temp. | Humidity | Pressure | Rain* | Wind** | Luminosity | Snow |
|---|---|---|---|---|---|---|---|
| 1777571155 | 26.67° C | 15% | 1008.1 hPa | 0 mm | - | 935 W/m² | - |
| 1777569954 | 26.11° C | 15% | 1008.4 hPa | 0 mm | - | 893 W/m² | - |
| 1777568740 | 25.56° C | 17% | 1008.3 hPa | 0 mm | - | 842 W/m² | - |
| 1777568119 | 25.56° C | 18% | 1008.3 hPa | 0 mm | - | 814 W/m² | - |
| 1777563319 | 24.44° C | 19% | 1008.9 hPa | 0 mm | - | 564 W/m² | - |
| 1777562119 | 23.33° C | 19% | 1008.8 hPa | 0 mm | - | 491 W/m² | - |
| 1777559734 | 21.11° C | 20% | 1008.6 hPa | 0 mm | - | 39 W/m² | - |
| 1777559133 | 21.11° C | 20% | 1008.7 hPa | 0 mm | - | 35 W/m² | - |
| 1777558534 | 21.11° C | 20% | 1008.7 hPa | 0 mm | - | 33 W/m² | - |
| 1777556719 | 20.56° C | 20% | 1008.4 hPa | 0 mm | - | 26 W/m² | - |
| 1777551319 | 21.67° C | 18% | 1008.3 hPa | 0 mm | - | 0 W/m² | - |
| 1777549533 | 22.22° C | 17% | 1008.2 hPa | 0 mm | - | 0 W/m² | - |
| 1777545319 | 22.78° C | 15% | 1008.5 hPa | 0 mm | - | 0 W/m² | - |
| 1777539919 | 23.89° C | 15% | 1009.3 hPa | 0 mm | - | 0 W/m² | - |
| 1777538733 | 23.89° C | 15% | 1009.4 hPa | 0 mm | - | 0 W/m² | - |
| 1777538118 | 23.89° C | 15% | 1009.4 hPa | 0 mm | - | 0 W/m² | - |
| 1777530949 | 25.56° C | 13% | 1010.1 hPa | 0 mm | - | 0 W/m² | - |
| 1777528554 | 25.56° C | 13% | 1010.3 hPa | 0 mm | - | 0 W/m² | - |
| 1777524319 | 26.11° C | 12% | 1010.2 hPa | 0 mm | - | 0 W/m² | - |
| 1777521934 | 26.11° C | 12% | 1010.1 hPa | 0 mm | - | 0 W/m² | - |
| 1777520149 | 26.67° C | 13% | 1009.5 hPa | 0 mm | - | 0 W/m² | - |
| 1777518954 | 26.67° C | 13% | 1009.2 hPa | 0 mm | - | 0 W/m² | - |
| 1777517719 | 26.67° C | 13% | 1008.8 hPa | 0 mm | - | 0 W/m² | - |
| 1777511119 | 28.33° C | 10% | 1008.9 hPa | 0 mm | - | 62 W/m² | - |
| 1777506907 | 28.33° C | 10% | 1009.1 hPa | 0 mm | - | 216 W/m² | - |
* Rain latest hour (hover to see other rain measurements)
** Current wind speed in m/s (hover to see current wind gust speed)